Hourly Data Report for February 03, 2003

SHERBROOKE A
QUEBEC

45°26'00.000" N
71°41'00.000" W
241.40 m
7028124
71610
YSC

Download Data

Hourly Data (February 2003)
Hourly Data Report for February 3, 2003
TIME
LST
Temp Definition
°C
Dew Point Definition
°C
Rel Hum Definition
%
Precip. Amount Definition
mm

Wind Dir Definition
10's deg

Wind Spd Definition
km/h
Visibility Definition
km
Stn Press Definition
kPa
Hmdx Definition


Wind Chill Definition


Weather Definition


00:00 -1.2 -6.6 67   29 24 15.0 97.20   -7  
01:00 -1.2 -5.9 70   28 26 15.0 97.24   -8  
02:00 -1.3 -6.2 69   29 28 15.0 97.34   -8  
03:00 -2.2 -7.1 69   28 32 15.0 97.42   -10  
04:00 -3.7 -8.9 67   27 28 15.0 97.47   -11  
05:00 -5.2 -10.6 66   27 24 15.0 97.58   -12  
06:00 -6.3 -11.5 67   26 20 15.0 97.68   -13  
07:00 -6.9 -12.1 66   26 22 15.0 97.79   -14  
08:00 -7.2 -12.9 64   28 26 24.1 97.89   -15 Mainly Clear
09:00 -6.4 -13.0 59   29 30 24.1 97.95   -15 Mainly Clear
10:00 -5.8 -13.2 56   28 22 24.1 97.98   -13 Mainly Clear
11:00 -5.4 -13.0 55   28 28 24.1 98.01   -13 Mainly Clear
12:00 -4.4 -12.7 52   28 30 24.1 97.96   -12 Mainly Clear
13:00 -4.0 -12.4 52   28 33 24.1 97.96   -12 Mainly Clear
14:00 -3.2 -13.1 46   30 19 24.1 97.97   -9 Mainly Clear
15:00 -3.5 -13.1 47   28 11 24.1 98.06   -8 Mainly Clear
16:00 -4.1 -13.5 48   28 9 24.1 98.15   -8 Mostly Cloudy
17:00 -4.5 -13.2 51   27 11 24.1 98.25   -9 Cloudy
18:00 -5.0 -12.9 54   27 6 15.0 98.29   -8  
19:00 -6.3 -12.1 63   17 6 15.0 98.30   -9  
20:00 -8.8 -13.2 70   13 4 15.0 98.31   -11  
21:00 -9.6 -13.8 71   10 6 15.0 98.24   -13  
22:00 -11.9 -15.0 78   9 7 15.0 98.17   -16  
23:00 -9.1 -13.5 70   10 11 15.0 98.10   -15  

Notes on Data Quality.

Legend

  • E = Estimated
  • M = Missing
  • NA = Not Available*
  • [empty] = Indicates an unobserved value
Date modified: